| time (UTC) | temp F | wind direction | speed knots | gust knots | rain 1hr in | rain 24hr in | rain mn in | humidity % | barometer mb |
| 20260507201559 | 53 | 243 | 3.5 | 8.7 | 0.00 | 0.00 | 0.00 | 88 | 1002.2 |
| 20260507200108 | 53 | 214 | 2.6 | 7.8 | 0.00 | 0.00 | 0.00 | 91 | 1002.2 |
| 20260507194556 | 54 | 232 | 2.6 | 8.7 | 0.00 | 0.00 | 0.00 | 94 | 1002.2 |
| 20260507193058 | 52 | 294 | 3.5 | 8.7 | 0.00 | 0.00 | 0.00 | 96 | 1002.3 |
| 20260507191604 | 52 | 271 | 2.6 | 7.0 | 0.00 | 0.00 | 0.00 | 97 | 1002.4 |
| 20260507190105 | 52 | 201 | 1.7 | 7.8 | 0.00 | 0.00 | 0.00 | 97 | 1002.2 |
| 20260507184601 | 51 | 289 | 3.5 | 7.8 | 0.00 | 0.00 | 0.00 | 97 | 1001.9 |
| 20260507183104 | 0 | 353 | 1.7 | 7.0 | 0.00 | 0.00 | 0.00 | 1002.2 | |
| 20260507181603 | 0 | 293 | 2.6 | 9.6 | 0.00 | 0.00 | 0.00 | 1002.2 | |
| 20260507180059 | 0 | 296 | 3.5 | 8.7 | 0.00 | 0.00 | 0.00 | 1002.2 | |
| 20260507174559 | 0 | 329 | 2.6 | 6.1 | 0.00 | 0.00 | 0.00 | 1002.1 | |
| 20260507173106 | 0 | 353 | 1.7 | 7.8 | 0.00 | 0.00 | 0.00 | 1001.8 | |
| 20260507171604 | 0 | 299 | 3.5 | 13.9 | 0.00 | 0.00 | 0.00 | 1002.6 | |
| 20260507164606 | 0 | 260 | 1.7 | 4.3 | 0.00 | 0.00 | 0.00 | 1001.9 | |
| 20260507163056 | 0 | 173 | 5.2 | 10.4 | 0.00 | 0.00 | 0.00 | 1001.0 | |
| 20260507161558 | 0 | 154 | 7.0 | 11.3 | 0.00 | 0.00 | 0.00 | 1001.4 | |
| 20260507160057 | 0 | 170 | 7.0 | 10.4 | 0.00 | 0.00 | 0.00 | 1002.0 | |
| 20260507154601 | 0 | 142 | 4.3 | 9.6 | 0.00 | 0.00 | 0.00 | 1002.4 | |
| 20260507153106 | 0 | 105 | 2.6 | 4.3 | 0.00 | 0.00 | 0.00 | 1002.6 | |
| 20260507151553 | 0 | 144 | 7.0 | 10.4 | 0.00 | 0.00 | 0.00 | 1003.4 | |
| 20260507150059 | 0 | 180 | 2.6 | 7.0 | 0.00 | 0.00 | 0.00 | 1003.0 | |
| 20260507144556 | 0 | 109 | 1.7 | 3.5 | 0.00 | 0.00 | 0.00 | 1003.4 | |
| 20260507143058 | 0 | 129 | 0.9 | 2.6 | 0.00 | 0.00 | 0.00 | 1004.2 | |
| 20260507141554 | 0 | 0 | 0.0 | 2.6 | 0.00 | 0.00 | 0.00 | 1004.3 | |
| 20260507140057 | 0 | 258 | 0.0 | 3.5 | 0.00 | 0.00 | 0.00 | 1004.7 | |
| 20260507134603 | 0 | 161 | 7.8 | 13.9 | 0.00 | 0.00 | 0.00 | 1004.1 | |
| 20260507133115 | 0 | 223 | 7.0 | 14.8 | 0.00 | 0.00 | 0.00 | 1004.2 | |
| 20260507131554 | 0 | 203 | 11.3 | 18.2 | 0.00 | 0.00 | 0.00 | 1003.5 | |
| 20260507130106 | 0 | 183 | 9.6 | 20.0 | 0.00 | 0.00 | 0.00 | 1003.3 | |
| 20260507124555 | 0 | 198 | 12.2 | 19.1 | 0.00 | 0.00 | 0.00 | 1003.5 | |
| 20260507123054 | 0 | 214 | 11.3 | 20.0 | 0.00 | 0.00 | 0.00 | 1003.6 | |
| 20260507121606 | 0 | 148 | 11.3 | 23.5 | 0.00 | 0.00 | 0.00 | 1003.7 | |
| 20260507120104 | 0 | 177 | 13.0 | 24.3 | 0.00 | 0.00 | 0.00 | 1003.8 | |
| 20260507114633 | 0 | 181 | 14.8 | 20.9 | 0.00 | 0.00 | 0.00 | 1003.8 | |
| 20260507113056 | 0 | 190 | 14.8 | 23.5 | 0.00 | 0.00 | 0.00 | 1003.9 | |
| 20260507111559 | 0 | 151 | 12.2 | 22.6 | 0.00 | 0.00 | 0.00 | 1003.9 | |
| 20260507110055 | 0 | 170 | 12.2 | 21.7 | 0.00 | 0.00 | 0.00 | 1003.8 | |
| 20260507104556 | 0 | 151 | 13.0 | 20.0 | 0.00 | 0.00 | 0.00 | 1004.0 | |
| 20260507103053 | 0 | 138 | 13.0 | 20.9 | 0.00 | 0.00 | 0.00 | 1004.2 | |
| 20260507101555 | 0 | 184 | 11.3 | 26.1 | 0.00 | 0.00 | 0.00 | 1004.2 | |
| 20260507100052 | 0 | 146 | 12.2 | 28.7 | 0.00 | 0.00 | 0.00 | 1004.7 | |
| 20260507094559 | 0 | 154 | 15.6 | 27.8 | 0.00 | 0.00 | 0.00 | 1004.2 | |
| 20260507093057 | 0 | 144 | 16.5 | 32.2 | 0.00 | 0.00 | 0.00 | 1003.7 | |
| 20260507091556 | 0 | 194 | 15.6 | 30.4 | 0.00 | 0.00 | 0.00 | 1004.0 | |
| 20260507090052 | 0 | 140 | 16.5 | 29.5 | 0.00 | 0.00 | 0.00 | 1004.2 | |
| 20260507084600 | 0 | 196 | 15.6 | 29.5 | 0.00 | 0.00 | 0.00 | 1004.4 | |
| 20260507083055 | 0 | 146 | 18.2 | 27.8 | 0.00 | 0.00 | 0.00 | 1003.9 | |
| 20260507081553 | 0 | 128 | 16.5 | 30.4 | 0.00 | 0.00 | 0.00 | 1004.0 | |
| 20260507080119 | 0 | 169 | 18.2 | 26.9 | 0.00 | 0.00 | 0.00 | 1004.5 | |
| 20260507074551 | 0 | 107 | 17.4 | 27.8 | 0.00 | 0.00 | 0.00 | 1005.0 | |
| 20260507073105 | 0 | 141 | 13.9 | 28.7 | 0.00 | 0.00 | 0.00 | 1005.3 | |
| 20260507071553 | 0 | 180 | 14.8 | 26.9 | 0.00 | 0.00 | 0.00 | 1005.4 | |
| 20260507070054 | 0 | 189 | 14.8 | 23.5 | 0.00 | 0.00 | 0.00 | 1005.7 | |
| 20260507064555 | 0 | 173 | 11.3 | 21.7 | 0.00 | 0.00 | 0.00 | 1006.2 | |
| 20260507063057 | 0 | 176 | 8.7 | 20.0 | 0.00 | 0.00 | 0.00 | 1006.7 | |
| 20260507061554 | 0 | 183 | 12.2 | 20.9 | 0.00 | 0.00 | 0.00 | 1007.0 | |
| 20260507060056 | 0 | 166 | 11.3 | 15.6 | 0.00 | 0.00 | 0.00 | 1007.3 | |
| 20260507054554 | 0 | 192 | 7.8 | 21.7 | 0.00 | 0.00 | 0.00 | 1007.3 | |
| 20260507053054 | 0 | 139 | 8.7 | 16.5 | 0.00 | 0.00 | 0.00 | 1008.4 | |
| 20260507051552 | 0 | 146 | 10.4 | 17.4 | 0.00 | 0.00 | 0.00 | 1008.9 | |
| 20260507050055 | 0 | 135 | 11.3 | 16.5 | 0.00 | 0.00 | 0.00 | 1009.6 | |
| 20260507044558 | 0 | 158 | 9.6 | 15.6 | 0.00 | 0.00 | 0.00 | 1010.1 | |
| 20260507043058 | 0 | 150 | 11.3 | 18.2 | 0.00 | 0.00 | 0.00 | 1010.4 | |
| 20260507041602 | 0 | 180 | 9.6 | 17.4 | 0.00 | 0.00 | 0.00 | 1010.8 | |
| 20260507040100 | 0 | 128 | 10.4 | 18.2 | 0.00 | 0.00 | 0.00 | 1010.7 | |
| 20260507034558 | 0 | 184 | 7.8 | 17.4 | 0.00 | 0.00 | 0.00 | 1010.9 | |
| 20260507033112 | 0 | 144 | 11.3 | 17.4 | 0.00 | 0.00 | 0.00 | 1011.5 | |
| 20260507031603 | 0 | 116 | 8.7 | 17.4 | 0.00 | 0.00 | 0.00 | 1011.8 | |
| 20260507030055 | 0 | 139 | 10.4 | 18.2 | 0.00 | 0.00 | 0.00 | 1012.0 | |
| 20260507024606 | 0 | 163 | 8.7 | 13.9 | 0.00 | 0.00 | 0.00 | 1012.3 | |
| 20260507023054 | 0 | 149 | 10.4 | 16.5 | 0.00 | 0.00 | 0.00 | 1011.9 | |
| 20260507021556 | 0 | 176 | 10.4 | 17.4 | 0.00 | 0.00 | 0.00 | 1012.1 | |
| 20260507020112 | 0 | 175 | 11.3 | 17.4 | 0.00 | 0.00 | 0.00 | 1012.5 | |
| 20260507014604 | 0 | 111 | 8.7 | 20.9 | 0.00 | 0.00 | 0.00 | 1013.0 | |
| 20260507013057 | 0 | 171 | 9.6 | 18.2 | 0.00 | 0.00 | 0.00 | 1013.3 | |
| 20260507011556 | 0 | 163 | 11.3 | 20.0 | 0.00 | 0.00 | 0.00 | 1013.4 | |
| 20260507010059 | 0 | 164 | 12.2 | 22.6 | 0.00 | 0.00 | 0.00 | 1013.5 | |
| 20260507004603 | 0 | 213 | 12.2 | 22.6 | 0.00 | 0.00 | 0.00 | 1013.7 | |
| 20260507003054 | 0 | 130 | 10.4 | 21.7 | 0.00 | 0.00 | 0.00 | 1013.7 | |
| 20260507001556 | 0 | 189 | 11.3 | 20.0 | 0.00 | 0.00 | 0.00 | 1013.6 | |
| 20260507000055 | 0 | 146 | 9.6 | 22.6 | 0.00 | 0.00 | 0.00 | 1013.6 | |
| 20260506234554 | 0 | 131 | 10.4 | 27.8 | 0.00 | 0.00 | 0.00 | 1013.7 | |
| 20260506233108 | 0 | 143 | 9.6 | 23.5 | 0.00 | 0.00 | 0.00 | 1013.6 | |
| 20260506231602 | 0 | 220 | 13.0 | 24.3 | 0.00 | 0.00 | 0.00 | 1013.6 | |
| 20260506230058 | 63 | 147 | 12.2 | 20.9 | 0.00 | 0.00 | 0.00 | 74 | 1013.4 |
| 20260506224554 | 63 | 175 | 10.4 | 20.9 | 0.00 | 0.00 | 0.00 | 73 | 1013.5 |
| 20260506223103 | 64 | 158 | 11.3 | 23.5 | 0.00 | 0.00 | 0.00 | 72 | 1013.4 |
| 20260506221612 | 64 | 188 | 10.4 | 22.6 | 0.00 | 0.00 | 0.00 | 70 | 1013.5 |
| 20260506220056 | 65 | 136 | 13.9 | 26.9 | 0.00 | 0.00 | 0.00 | 67 | 1013.5 |
| 20260506214555 | 66 | 164 | 11.3 | 24.3 | 0.00 | 0.00 | 0.00 | 65 | 1013.5 |
| 20260506213115 | 66 | 198 | 11.3 | 23.5 | 0.00 | 0.00 | 0.00 | 65 | 1013.1 |
| 20260506211558 | 67 | 172 | 11.3 | 22.6 | 0.00 | 0.00 | 0.00 | 65 | 1013.2 |
| 20260506210054 | 67 | 220 | 10.4 | 27.8 | 0.00 | 0.00 | 0.00 | 63 | 1013.2 |
| 20260506204557 | 68 | 160 | 10.4 | 23.5 | 0.00 | 0.00 | 0.00 | 61 | 1013.1 |
| 20260506203052 | 69 | 189 | 12.2 | 24.3 | 0.00 | 0.00 | 0.00 | 59 | 1012.9 |